Hourly Weather Otuzco

Today, 23 July, Friday

Time Temperature Precipitation Wind Pressure Humidity
00:00 +9°C° 0 mm 2 mps 534 mmHg 59%
01:00 +9°C° 0 mm 2 mps 534 mmHg 60%
02:00 +9°C° 0 mm 2 mps 533 mmHg 59%
03:00 +9°C° 0 mm 2 mps 533 mmHg 58%
04:00 +9°C° 0 mm 2 mps 533 mmHg 57%
05:00 +9°C° 0 mm 2 mps 533 mmHg 55%
06:00 +9°C° 0 mm 2 mps 534 mmHg 52%
07:00 +9°C° 0 mm 3 mps 534 mmHg 50%
08:00 +13°C° 0 mm 2 mps 535 mmHg 43%
09:00 +15°C° 0 mm 2 mps 537 mmHg 35%
10:00 +17°C° 0 mm 2 mps 538 mmHg 28%
11:00 +18°C° 0 mm 2 mps 538 mmHg 28%
12:00 +19°C° 0 mm 3 mps 538 mmHg 28%
13:00 +19°C° 0 mm 4 mps 537 mmHg 28%
14:00 +19°C° 0 mm 3 mps 537 mmHg 31%
15:00 +18°C° 0 mm 3 mps 536 mmHg 34%
16:00 +17°C° 0 mm 3 mps 535 mmHg 37%
17:00 +15°C° 0 mm 2 mps 535 mmHg 46%
18:00 +14°C° 0 mm 2 mps 534 mmHg 54%
19:00 +12°C° 0 mm 1 mps 533 mmHg 63%
20:00 +11°C° 0 mm 1 mps 534 mmHg 62%
21:00 +11°C° 0 mm 1 mps 534 mmHg 62%
22:00 +11°C° 0 mm 1 mps 534 mmHg 61%
23:00 +11°C° 0 mm 1 mps 534 mmHg 61%

Tomorrow, 24 July, Saturday

Time Temperature Precipitation Wind Pressure Humidity
00:00 +10°C° 0 mm 1 mps 533 mmHg 61%
01:00 +10°C° 0 mm 1 mps 533 mmHg 60%
02:00 +10°C° 0 mm 1 mps 533 mmHg 60%
03:00 +9°C° 0 mm 1 mps 532 mmHg 59%
04:00 +9°C° 0 mm 1 mps 532 mmHg 58%
05:00 +10°C° 0 mm 1 mps 533 mmHg 57%
06:00 +9°C° 0 mm 2 mps 533 mmHg 56%
07:00 +9°C° 0 mm 2 mps 533 mmHg 54%
08:00 +13°C° 0 mm 2 mps 535 mmHg 47%
09:00 +15°C° 0 mm 2 mps 536 mmHg 39%
10:00 +17°C° 0 mm 2 mps 537 mmHg 31%
11:00 +18°C° 0 mm 2 mps 537 mmHg 32%
12:00 +18°C° 0 mm 3 mps 537 mmHg 33%
13:00 +18°C° 0 mm 3 mps 536 mmHg 34%
14:00 +18°C° 0 mm 3 mps 536 mmHg 37%
15:00 +17°C° 0 mm 3 mps 535 mmHg 41%
16:00 +17°C° 0 mm 4 mps 535 mmHg 44%
17:00 +13°C° 0 mm 3 mps 534 mmHg 54%
18:00 +12°C° 0 mm 2 mps 533 mmHg 64%
19:00 +10°C° 0 mm 1 mps 533 mmHg 74%
20:00 +9°C° 0 mm 0 mps 533 mmHg 72%
21:00 +9°C° 0 mm 0 mps 533 mmHg 71%
22:00 +9°C° 0 mm 0 mps 533 mmHg 69%
23:00 +8°C° 0 mm 0 mps 533 mmHg 72%

Day after tomorrow, 25 July, Sunday

Time Temperature Precipitation Wind Pressure Humidity
00:00 +8°C° 0 mm 0 mps 532 mmHg 74%
01:00 +8°C° 0 mm 0 mps 532 mmHg 76%
02:00 +7°C° 0 mm 0 mps 532 mmHg 77%
03:00 +8°C° 0 mm 1 mps 532 mmHg 77%
04:00 +8°C° 0 mm 1 mps 531 mmHg 77%
05:00 +8°C° 0 mm 1 mps 532 mmHg 75%
06:00 +9°C° 0 mm 1 mps 532 mmHg 73%
07:00 +9°C° 0 mm 1 mps 533 mmHg 71%
08:00 +11°C° 0 mm 1 mps 534 mmHg 64%
09:00 +13°C° 0 mm 2 mps 535 mmHg 56%
10:00 +15°C° 0 mm 2 mps 536 mmHg 49%
11:00 +14°C° 0 mm 3 mps 536 mmHg 49%
12:00 +16°C° 0 mm 3 mps 536 mmHg 48%
13:00 +15°C° 0 mm 4 mps 536 mmHg 48%
14:00 +14°C° 0.1 mm 4 mps 535 mmHg 52%
15:00 +14°C° 0.1 mm 4 mps 534 mmHg 56%
16:00 +13°C° 0.1 mm 4 mps 534 mmHg 61%
17:00 +11°C° 0.1 mm 3 mps 533 mmHg 68%
18:00 +10°C° 0.1 mm 2 mps 533 mmHg 76%
19:00 +9°C° 0.1 mm 1 mps 533 mmHg 84%
20:00 +9°C° 0 mm 1 mps 533 mmHg 83%
21:00 +9°C° 0 mm 1 mps 533 mmHg 83%
22:00 +9°C° 0 mm 1 mps 533 mmHg 82%
23:00 +9°C° 0 mm 1 mps 533 mmHg 82%

26 July, Monday

Time Temperature Precipitation Wind Pressure Humidity
00:00 +9°C° 0 mm 1 mps 533 mmHg 83%
01:00 +8°C° 0 mm 1 mps 532 mmHg 83%
02:00 +8°C° 0 mm 1 mps 532 mmHg 83%
03:00 +8°C° 0 mm 1 mps 532 mmHg 83%
04:00 +8°C° 0 mm 1 mps 532 mmHg 83%
05:00 +8°C° 0 mm 1 mps 532 mmHg 80%
06:00 +8°C° 0 mm 1 mps 532 mmHg 77%
07:00 +9°C° 0 mm 1 mps 533 mmHg 74%
08:00 +10°C° 0 mm 2 mps 534 mmHg 65%
09:00 +13°C° 0 mm 2 mps 535 mmHg 55%
10:00 +15°C° 0 mm 2 mps 536 mmHg 46%
11:00 +16°C° 0 mm 3 mps 536 mmHg 45%
12:00 +17°C° 0 mm 3 mps 536 mmHg 44%
13:00 +17°C° 0 mm 4 mps 536 mmHg 43%
14:00 +17°C° 0 mm 4 mps 536 mmHg 47%
15:00 +15°C° 0 mm 4 mps 535 mmHg 52%
16:00 +14°C° 0 mm 4 mps 534 mmHg 57%
17:00 +12°C° 0 mm 3 mps 534 mmHg 65%
18:00 +12°C° 0 mm 2 mps 533 mmHg 73%
19:00 +10°C° 0 mm 1 mps 533 mmHg 80%
20:00 +10°C° 0 mm 1 mps 533 mmHg 80%
21:00 +9°C° 0 mm 0 mps 533 mmHg 80%
22:00 +9°C° 0 mm 0 mps 534 mmHg 79%
23:00 +8°C° 0 mm 0 mps 533 mmHg 80%

27 July, Tuesday

Time Temperature Precipitation Wind Pressure Humidity
00:00 +8°C° 0 mm 0 mps 533 mmHg 81%
01:00 +8°C° 0 mm 0 mps 533 mmHg 82%
02:00 +9°C° 0 mm 1 mps 532 mmHg 82%
03:00 +8°C° 0 mm 1 mps 532 mmHg 82%
04:00 +8°C° 0 mm 1 mps 532 mmHg 82%
05:00 +8°C° 0 mm 1 mps 532 mmHg 80%
06:00 +9°C° 0 mm 1 mps 533 mmHg 77%
07:00 +9°C° 0 mm 1 mps 533 mmHg 75%
08:00 +11°C° 0 mm 1 mps 535 mmHg 66%
09:00 +14°C° 0 mm 2 mps 536 mmHg 57%
10:00 +16°C° 0 mm 2 mps 537 mmHg 48%
11:00 +16°C° 0 mm 3 mps 537 mmHg 47%
12:00 +17°C° 0 mm 4 mps 537 mmHg 46%
13:00 +18°C° 0 mm 4 mps 537 mmHg 44%
14:00 +17°C° 0 mm 4 mps 536 mmHg 49%
15:00 +15°C° 0 mm 4 mps 535 mmHg 53%
16:00 +14°C° 0 mm 4 mps 534 mmHg 58%
17:00 +13°C° 0.1 mm 3 mps 534 mmHg 64%
18:00 +12°C° 0.1 mm 2 mps 534 mmHg 71%
19:00 +11°C° 0.1 mm 1 mps 533 mmHg 78%
20:00 +11°C° 0 mm 1 mps 533 mmHg 78%
21:00 +10°C° 0 mm 0 mps 534 mmHg 77%
22:00 +9°C° 0 mm 0 mps 534 mmHg 77%
23:00 +9°C° 0 mm 0 mps 534 mmHg 76%

28 July, Wednesday

Time Temperature Precipitation Wind Pressure Humidity
00:00 +9°C° 0 mm 0 mps 533 mmHg 75%
01:00 +9°C° 0 mm 0 mps 533 mmHg 74%
02:00 +9°C° 0 mm 0 mps 533 mmHg 73%
03:00 +9°C° 0 mm 0 mps 533 mmHg 72%
04:00 +9°C° 0 mm 0 mps 533 mmHg 71%
05:00 +9°C° 0 mm 0 mps 533 mmHg 70%
06:00 +10°C° 0 mm 0 mps 533 mmHg 68%
07:00 +10°C° 0 mm 0 mps 534 mmHg 67%
08:00 +13°C° 0 mm 1 mps 535 mmHg 61%
09:00 +14°C° 0 mm 1 mps 536 mmHg 54%
10:00 +16°C° 0 mm 2 mps 536 mmHg 48%
11:00 +16°C° 0 mm 3 mps 536 mmHg 47%
12:00 +17°C° 0 mm 3 mps 536 mmHg 46%
13:00 +17°C° 0 mm 4 mps 536 mmHg 46%
14:00 +15°C° 0 mm 4 mps 535 mmHg 49%
15:00 +14°C° 0 mm 3 mps 535 mmHg 53%
16:00 +14°C° 0 mm 3 mps 534 mmHg 57%
17:00 +13°C° 0 mm 2 mps 534 mmHg 63%
18:00 +12°C° 0 mm 1 mps 533 mmHg 69%
19:00 +10°C° 0 mm 0 mps 533 mmHg 74%
20:00 +10°C° 0 mm 0 mps 533 mmHg 74%
21:00 +10°C° 0 mm 0 mps 534 mmHg 74%
22:00 +10°C° 0 mm 0 mps 534 mmHg 74%
23:00 +10°C° 0 mm 0 mps 534 mmHg 73%
Show more